This is the latest recevied weather packets stored in our database for station/object N7DQ. If no packets are shown the sender has not sent any weather packets the latest 10 day(s).
| Time | Temp. | Humidity | Pressure | Rain* | Wind** | Luminosity | Snow |
|---|---|---|---|---|---|---|---|
| 1777968606 | 12.78° C | 81% | 1014.7 hPa | 0 mm | - | 0 W/m² | - |
| 1777968306 | 12.78° C | 82% | 1014.7 hPa | 0 mm | - | 0 W/m² | - |
| 1777968006 | 12.78° C | 82% | 1014.7 hPa | 0 mm | - | 0 W/m² | - |
| 1777967706 | 12.78° C | 81% | 1014.6 hPa | 0 mm | - | 0 W/m² | - |
| 1777967406 | 12.78° C | 81% | 1014.5 hPa | 0 mm | - | 0 W/m² | - |
| 1777967105 | 12.78° C | 82% | 1014.5 hPa | 0 mm | - | 0 W/m² | - |
| 1777966805 | 12.78° C | 82% | 1014.3 hPa | 0 mm | - | 0 W/m² | - |
| 1777966505 | 12.78° C | 82% | 1014.4 hPa | 0 mm | - | 0 W/m² | - |
| 1777966205 | 12.78° C | 82% | 1014.3 hPa | 0 mm | - | 0 W/m² | - |
| 1777965905 | 12.78° C | 82% | 1014.3 hPa | 0 mm | - | 0 W/m² | - |
| 1777965606 | 12.78° C | 82% | 1014.3 hPa | 0 mm | - | 0 W/m² | - |
| 1777965305 | 12.78° C | 82% | 1014.3 hPa | 0 mm | - | 0 W/m² | - |
| 1777923606 | 21.67° C | 64% | 1013.1 hPa | 0 mm | - | 868 W/m² | - |
| 1777923306 | 21.67° C | 65% | 1013.1 hPa | 0 mm | - | 870 W/m² | - |
| 1777923006 | 21.67° C | 63% | 1013.2 hPa | 0 mm | - | 867 W/m² | - |
| 1777922706 | 21.11° C | 65% | 1013.2 hPa | 0 mm | - | 854 W/m² | - |
| 1777922406 | 21.11° C | 66% | 1013.3 hPa | 0 mm | - | 851 W/m² | - |
| 1777922106 | 21.11° C | 63% | 1013.3 hPa | 0 mm | - | 842 W/m² | - |
| 1777921807 | 21.11° C | 65% | 1013.3 hPa | 0 mm | - | 844 W/m² | - |
| 1777921506 | 21.11° C | 65% | 1013.4 hPa | 0 mm | - | 847 W/m² | - |
| 1777921207 | 20.56° C | 65% | 1013.5 hPa | 0 mm | - | 851 W/m² | - |
| 1777920907 | 20.56° C | 67% | 1013.4 hPa | 0 mm | - | 737 W/m² | - |
| 1777920607 | 20° C | 66% | 1013.5 hPa | 0 mm | - | 844 W/m² | - |
| 1777920307 | 20° C | 65% | 1013.5 hPa | 0 mm | - | 819 W/m² | - |
| 1777912806 | 14.44° C | 81% | 1014 hPa | 0 mm | - | 216 W/m² | - |
* Rain latest hour (hover to see other rain measurements)
** Current wind speed in m/s (hover to see current wind gust speed)